This is the latest recevied weather packets stored in our database for station/object OK2ILA-3. If no packets are shown the sender has not sent any weather packets the latest 10 day(s).
| Time | Temp. | Humidity | Pressure | Rain* | Wind** | Luminosity | Snow |
|---|---|---|---|---|---|---|---|
| 1778187767 | 9.44° C | 63% | 22.4 hPa | 1.27 mm | - | - | - |
| 1778187162 | 9.44° C | 37% | 22.4 hPa | 1.27 mm | - | - | - |
| 1778186555 | 9.44° C | 1% | 665.7 hPa | 1.02 mm | - | - | - |
| 1778185951 | 9.44° C | 3% | 4096.8 hPa | 1.02 mm | - | - | - |
| 1778185344 | 9.44° C | 51% | 4096.8 hPa | 1.02 mm | - | - | - |
| 1778184133 | 10° C | 1% | 6067.3 hPa | 1.02 mm | - | - | - |
| 1778183525 | 10° C | 4% | 155.8 hPa | 1.02 mm | - | - | - |
| 1778182921 | 10° C | 32% | 155.8 hPa | 1.02 mm | - | - | - |
| 1778182316 | 10° C | 13% | 155.8 hPa | 1.02 mm | - | - | - |
| 1778181708 | 10.56° C | 12% | 4099.1 hPa | 1.02 mm | - | - | - |
| 1778181104 | 10° C | 25% | 4099.1 hPa | 1.02 mm | - | - | - |
| 1778180499 | 10° C | 31% | 4352 hPa | 1.02 mm | - | - | - |
| 1778179893 | 10° C | 13% | 1561.6 hPa | 1.02 mm | - | - | - |
| 1778179287 | 10.56° C | 13% | 1561.6 hPa | 1.02 mm | - | - | - |
| 1778178681 | 11.11° C | 13% | 5.1 hPa | 1.02 mm | - | - | - |
| 1778178076 | 11.67° C | 54% | 53.7 hPa | 0.76 mm | - | - | - |
| 1778177471 | 11.67° C | 12% | 8.1 hPa | 0.76 mm | - | - | - |
| 1778176866 | 12.22° C | 1% | 8.1 hPa | 0.25 mm | - | - | - |
| 1778175659 | 12.78° C | 3% | 8.1 hPa | 0 mm | - | - | - |
| 1778175056 | 12.78° C | 5% | 2585.6 hPa | 0 mm | - | - | - |
| 1778174448 | 13.33° C | 1% | 2585.6 hPa | 0 mm | - | - | - |
| 1778173843 | 13.89° C | 12% | 4352 hPa | 0 mm | - | - | - |
| 1778173240 | 14.44° C | 1% | 4352 hPa | 0 mm | - | - | - |
| 1778172635 | 15.56° C | 12% | 979.2 hPa | 0 mm | - | - | - |
| 1778172027 | 15.56° C | 12% | 0 hPa | 0 mm | - | - | - |
* Rain latest 24 hours (hover to see other rain measurements)
** Current wind speed in m/s (hover to see current wind gust speed)